Printer-friendly version

IAU Minor Planet Center

Minor Planet Center

MPEC 2008-D51 : 2008 AZ110

The following Minor Planet Electronic Circular may be linked-to from your own Web pages, but must not otherwise be redistributed electronically.


Read MPEC 2008-D50 Read MPEC 2008-D52


M.P.E.C. 2008-D51                                Issued 2008 Feb. 28, 12:37 UT

     The Minor Planet Electronic Circulars contain information on unusual
         minor planets and routine data on comets.  They are published
   on behalf of Commission 20 of the International Astronomical Union by the
          Minor Planet Center, Smithsonian Astrophysical Observatory,
                          Cambridge, MA 02138, U.S.A.

             Prepared using the Tamkin Foundation Computer Network

                              MPC@CFA.HARVARD.EDU
          URL http://www.cfa.harvard.edu/iau/mpc.html  ISSN 1523-6714

                                  2008 AZ110

Additional Observations:
     K08AB0Z  C2004 06 10.38706 21 38 23.33 -17 12 22.8          19.1 R ED051703
     K08AB0Z  C2004 06 10.39858 21 38 23.58 -17 12 18.5          19.3 R ED051703
     K08AB0Z  C2004 06 10.41014 21 38 24.02 -17 12 12.7          19.6 R ED051703
     K08AB0Z  C2004 06 10.42163 21 38 24.38 -17 12 07.6          19.9 R ED051703
     K08AB0Z  C2004 08 22.14069 20 47 49.64 -15 21 02.6          20.1 V ED051691
     K08AB0Z  C2004 08 22.16768 20 47 48.56 -15 21 03.6          20.2 V ED051691
     K08AB0Z  C2004 08 22.19457 20 47 47.45 -15 21 04.3          20.1 V ED051691
     K08AB0Z  C2008 02 13.20689 08 40 17.86 +16 46 53.6          20.6 V ED051G96
     K08AB0Z  C2008 02 13.21168 08 40 17.47 +16 46 55.0          20.7 V ED051G96
     K08AB0Z  C2008 02 13.21642 08 40 17.07 +16 46 55.3          20.6 V ED051G96
     K08AB0Z  C2008 02 13.22120 08 40 16.71 +16 46 56.4          20.6 V ED051G96
     K08AB0Z  C2008 02 13.24506 08 40 14.73 +16 47 00.6          20.8 V ED051G96
     K08AB0Z  C2008 02 13.24993 08 40 14.30 +16 47 01.5          20.7 V ED051G96
     K08AB0Z  C2008 02 13.25496 08 40 13.87 +16 47 03.1          20.1 V ED051G96
     K08AB0Z  C2008 02 13.25983 08 40 13.62 +16 47 03.7          20.0 V ED051G96
     K08AB0Z  C2008 02 27.21405 08 23 10.32 +17 18 50.0          21.0 V ED051G96
     K08AB0Z  C2008 02 27.22401 08 23 09.67 +17 18 50.2          20.7 V ED051G96
     K08AB0Z  C2008 02 27.23402 08 23 09.02 +17 18 52.2          21.5 V ED051G96
     K08AB0Z  C2008 02 27.24403 08 23 08.34 +17 18 53.1          20.9 V ED051G96
     K08AB0Z  C2008 02 27.26087 08 23 07.18 +17 18 54.3          20.9 V ED051G96
     K08AB0Z  C2008 02 27.26806 08 23 06.75 +17 18 55.5          20.4 V ED051G96
     K08AB0Z  C2008 02 27.27526 08 23 06.25 +17 18 55.6          21.9 V ED051G96
     K08AB0Z  C2008 02 28.13415 08 22 12.97 +17 20 18.3          21.0 V ED051291
     K08AB0Z  C2008 02 28.13959 08 22 12.62 +17 20 19.0          21.1 V ED051291
     K08AB0Z  C2008 02 28.14419 08 22 12.33 +17 20 19.5          21.0 V ED051291

Observer details:
291 LPL/Spacewatch II.  Observer J. V. Scotti.  1.8-m f/2.7 reflector + CCD.
G96 Mt. Lemmon Survey.  Observers R. A. Kowalski, A. D. Grauer.  Measurers
    E. C. Beshore, A. Boattini, G. J. Garradd, A. R. Gibbs, A. D. Grauer,
    R. E. Hill, R. A. Kowalski, S. M. Larson, R. H. McNaught.  1.5-m reflector
    + CCD.
691 Steward Observatory, Kitt Peak.  Observers T. Gehrels, J. V. Scotti, J. L.
    Montani, J. A. Larsen, R. S. McMillan, A. E. Gleason, M. T. Read, A. F.
    Tubbiolo, A. S. Descour, T. H. Bressi.  0.9-m Spacewatch telescope + CCD.
703 Catalina Sky Survey.  Observers S. Larson, E. Beshore, E. Christensen,
    R. Hill, D. McLean.  0.68-m f/1.8 Schmidt + CCD.

Orbital elements:
2008 AZ110                                               Earth MOID = 0.2724 AU
Epoch 2008 May 14.0 TT = JDT 2454600.5                  MPC
M 341.12316              (2000.0)            P               Q
n   0.22823886     Peri.  291.70363     -0.57710205     +0.81474079
a   2.6518136      Node   302.92683     -0.72239555     -0.54133231
e   0.5193906      Incl.    3.83440     -0.38091717     -0.20774210
P   4.32           H   18.3           G   0.15           U   3
Residuals in seconds of arc
040610 703  0.9+  1.0+    080119 691  0.1+  0.6+    080227 G96  0.4+  0.7-
040610 703  0.9-  0.1-    080119 691  0.6+  0.2-    080227 G96  0.5+  0.3+
040610 703  0.1+  0.3+    080213 G96  0.1+  0.3-    080227 G96  0.3+  0.2+
040610 703  0.1-  0.0     080213 G96  0.2+  0.3+    080227 G96  0.3-  0.2-
040822 691  0.3-  0.5+    080213 G96  0.1+  0.3-    080227 G96  0.3+  0.3+
040822 691  0.1-  0.3+    080213 G96  0.6+  0.0     080227 G96  0.0   0.3-
040822 691  0.2-  0.4+    080213 G96  0.5+  0.1+    080228 291  0.2-  0.2+
080115 691  0.3-  0.4+    080213 G96  0.1+  0.2+    080228 291  0.2-  0.4+
080115 691  0.4-  0.0     080213 G96  0.1-  1.0+    080228 291  0.1-  0.4+
080115 691  0.4+  0.2-    080213 G96 (2.1+  0.7+)
080119 691  0.0   0.1+    080227 G96  0.2+  0.0

Ephemeris:
2008 AZ110               a,e,i = 2.65, 0.52, 4                   q = 1.2745
Date    TT    R. A. (2000) Decl.     Delta      r     Elong.  Phase     V
2008 02 24    08 26.72   +17 13.1    1.127    2.045   150.1    13.9    20.9
2008 03 05    08 16.78   +17 27.6    1.131    1.981   137.7    19.7    21.0
2008 03 15    08 10.66   +17 31.0    1.152    1.917   126.3    24.7    21.2
2008 03 25    08 08.96   +17 22.8    1.184    1.852   116.0    28.9    21.3
2008 04 04    08 11.67   +17 03.0    1.221    1.789   106.8    32.4    21.4
2008 04 14    08 18.54   +16 31.1    1.260    1.726    98.7    35.1    21.4
2008 04 24    08 29.14   +15 46.2    1.297    1.664    91.6    37.2    21.5
2008 05 04    08 43.02   +14 47.0    1.331    1.604    85.4    38.8    21.5
2008 05 14    08 59.79   +13 32.2    1.359    1.547    80.0    40.1    21.5
2008 05 24    09 19.09   +12 00.5    1.381    1.492    75.4    41.0    21.5
2008 06 03    09 40.64   +10 10.9    1.398    1.442    71.4    41.8    21.5
2008 06 13    10 04.23   +08 02.8    1.410    1.396    68.0    42.4    21.4
2008 06 23    10 29.69   +05 36.4    1.418    1.356    65.3    42.9    21.4
2008 07 03    10 56.91   +02 52.8    1.424    1.324    63.1    43.2    21.3
2008 07 13    11 25.83   -00 05.9    1.430    1.299    61.4    43.4    21.3
2008 07 23    11 56.39   -03 16.1    1.438    1.282    60.1    43.4    21.3

Timothy B. Spahr             (C) Copyright 2008 MPC           M.P.E.C. 2008-D51

Read MPEC 2008-D50 Read MPEC 2008-D52


Our Web policy. Index to the CBAT/MPC/ICQ pages.


Valid HTML 4.01!